Погода в Новониколаевском

Россия / Республика Татарстан     55°53′46″N   48°57′46″E
темп.,
°C
ветер,
м/с
пор.,
м/с
влажн.,
%
обл.,
%
осадки,
мм/ч
давл.,
гПа
погр.,
м
27 сентября, пн
пн2700:00+7св379136 0.0 1009153
03:00+8ссв51091100 0.0 1009310
06:00+8св61185100 0.0 1010574
09:00+7всв71090100 1.8 10111101
12:00+4всв81296100 2.3 1014741
15:00+4всв81396100 2.6 1017703
18:00+4всв71496100 0.1 1019836
21:00+4всв7138094 0.1 1021822
28 сентября, вт
вт2800:00+2св5128913 0.0 1023485
03:00+1св612865 0.0 1025400
06:000св512905 0.0 1026345
09:00+4св6973100 0.0 1027587
12:00+7св685796 0.0 10271156
15:00+8св675010 0.0 10281350
18:00+4св36685 0.0 1029125
21:00+2ссв2273100 0.0 103033
29 сентября, ср
ср2900:00+2ссв347883 0.0 103068
03:00+1ссв338271 0.0 103041
06:000ссв238719 0.0 103141
09:00+5ссв3465100 0.0 1032341
12:00+8ссв33535 0.0 10311076
15:00+9ссв34475 0.0 10311391
18:00+5ссв22635 0.0 103115
21:00+3с22725 0.0 103214
30 сентября, чт
чт3000:00+3ссв117726 0.0 103211
03:00+4ссз1170100 0.0 103312
06:00+5ссз2276100 0.0 103325
09:00+7ссз247265 0.0 1033384
12:00+8ссз3466100 0.1 1033629
15:00+10сз346151 0.1 10321081
18:00+8зсз2473100 0.0 103283
21:00+8з247582 0.0 1032112
1 октября, пт
пт100:00+6зсз338722 0.0 103139
03:00+5з359275 0.0 103181
06:00+7зсз398941 0.0 1030255
09:00+10сз47775 0.0 1030476
12:00+13ссз56595 0.0 10301001
15:00+14ссз56555 0.0 10301138
18:00+9ссз22765 0.0 103128
21:00+8ссз22845 0.0 103212